Location: Washington
(38.8950°N, 77.0370°W)
Time: 05:29:57
(UTC-04:00)

IDEFIX/ARIANE 42P - Visible Passes

Search period start: 29 July 2015 00:00
Search period end: 08 August 2015 00:00
Orbit: 784 x 804 km, 98.3° (Epoch: 28 July)

Date Brightness Start Highest point End Pass type
(mag) Time Alt. Az. Time Alt. Az. Time Alt. Az.
29 Jul 5.3 21:25:50 10° WSW 21:28:40 14° W 21:31:12 10° WNW visible
30 Jul 4.8 20:55:39 10° SSW 21:00:02 26° W 21:04:20 10° NW visible
02 Aug 5.2 21:11:18 10° SW 21:15:01 19° W 21:18:32 10° NW visible
03 Aug 4.3 20:41:43 10° SSW 20:46:28 35° W 20:51:10 10° NNW visible
05 Aug 5.4 21:27:28 10° WSW 21:30:02 13° W 21:32:17 10° WNW visible
06 Aug 4.9 20:57:07 10° SSW 21:01:23 25° W 21:05:34 10° NW visible
